Other Public Products
Issued by NWS Grand Forks, ND

Home | Current Version | Previous Version | Graphics & Text | Print | Product List | Glossary On
Versions: 1 2 3 4 5 6 7 8 9 10 11 12 13 14 15 16 17 18 19 20 21 22 23 24 25 26 27 28 29 30 31 32 33 34 35 36 37 38 39 40 41 42 43 44 45 46 47 48 49 50
000
FPUS83 KFGF 032331
OPUFGF
PRAIRIE TO PINES WEATHER ROUNDUP
NATIONAL WEATHER SERVICE EASTERN NORTH DAKOTA/GRAND FORKS ND
500 PM CST TUE MAR 03 2015

 **SATELLITE DATA USED TO AUGMENT SKY COVER AT AUTOMATED STATIONS**
 *****  WEATHER ACROSS EASTERN NORTH DAKOTA  *****

CITY           SKY/WX    TMP DP  RH WIND       PRES   REMARKS
GRAND FORKS    CLOUDY     8  -3  61 W24G31    29.92R WCI -13
GRAND FORKS AF FAIR       6  -6  55 NW20G28   29.92R WCI -13
GRAND CITY NWS   N/A      7 N/A N/A NW15        N/A  WCI -11
BUXTON         NOT AVBL
DEVILS LAKE    FAIR       1  -9  60 NW29G37   29.91S WCI -24
FARGO          FLURRIES  11  -3  53 NW28G33   29.95R WCI -10
WAHPETON ARPT  CLOUDY    10   0  61 NW28G38   29.95R WCI -11
$$

 *****  WEATHER ACROSS CENTRAL AND WESTERN NORTH DAKOTA  *****

CITY           SKY/WX    TMP DP  RH WIND       PRES   REMARKS
JAMESTOWN      PTSUNNY    7  -4  60 NW28G36   29.95R WCI -16
BISMARCK       CLOUDY    10   1  67 NW17G25   30.01F WCI  -8
MINOT          CLOUDY     4  -7  60 W29G37    29.97S BLWGSNOWWCI -20
MINOT AFB      PTSUNNY    3  -4  72 NW32G40   29.95S BLWGSNOWWCI -22
GARRISON         N/A      6  -3  66 NW24G33   29.98R WCI -16
WILLISTON      MOSUNNY    8  -3  61 NW20G25   30.02S WCI -11
DICKINSON      MOSUNNY   13  -6  42 W28G37    29.93S WCI  -8
HETTINGER      MOSUNNY   15  -5  40 W21G35    29.96S WCI  -2
$$

 *****  OTHER OBSERVATIONS NORTHEAST NORTH DAKOTA  *****

CITY           SKY/WX    TMP DP  RH WIND       PRES   REMARKS
WALHALLA         N/A      1  -9  60 NW23G36   29.90S WCI -21
LANGDON        NOT AVBL
CAVALIER       CLOUDY     3  -4  72 NW21G26   29.91R WCI -18
GRAFTON        NOT AVBL
CANDO          FAIR       1  -6  71 W26G32    29.91S WCI -23
FORT TOTTEN      N/A      4  -7  59 NW13      29.95  WCI -13
ROLLA          FAIR       0 -11  60 NW25G33   29.86R WCI -25
RUGBY          FAIR       1  -4  78 NW25G33   29.93S HAZE    WCI -22
 ***** THE ABOVE OBSERVATIONS ARE NON NWS ARE NOT QUALITY
        CONTROLLED AND MAY MIS-REPORT RAIN FOR SNOW...
$$

 *****  OTHER OBSERVATIONS SOUTHEAST NORTH DAKOTA *****

CITY           SKY/WX    TMP DP  RH WIND       PRES   REMARKS
COOPERSTOWN    NOT AVBL
VALLEY CITY    FLURRIES   7  -2  66 NW32G41   29.94R WCI -17
OAKES            N/A      9   0  66 NW24G35   29.97R WCI -12
GWINNER        PTCLDY    12   0  57 NW25G32   29.97R WCI  -8
SHEYENNE NWR     N/A     10  -4  51 NW20      29.95S WCI  -9
BUFFALO        NOT AVBL
WYNDMERE       NOT AVBL
 ***** THE ABOVE OBSERVATIONS ARE NON NWS ARE NOT QUALITY
       CONTROLLED AND MAY MIS-REPORT RAIN FOR SNOW...
$$

  *****  WEATHER ACROSS NORTHERN MINNESOTA  *****

CITY           SKY/WX    TMP DP  RH WIND       PRES   REMARKS
FLAG ISLAND    FAIR       3  -8  60 NW21G26   29.74S WCI -18
WARROAD        CLOUDY     5  -6  61 W14G21    29.78R WCI -12
ROSEAU         PTSUNNY    5  -2  72 W17G23    29.80R WCI -14
HALLOCK        FAIR       3  -6  66 NW23G30   29.88R WCI -19
THF RVR FALLS  PTSUNNY    3  -6  66 W17G28    29.86R WCI -17
HALSTAD          N/A      8  -4  57 NW22        N/A  WCI -12
FOSSTON        CLOUDY     3  -4  72 NW16G22   29.86R WCI -16
BAUDETTE       MOCLDY     6  -7  54 NW18G28   29.73R WCI -13
WASKISH        FAIR       7  -2  66 W14G23    29.78R WCI -10
CROOKSTON      FAIR       9  -2  61 NW17G28   29.92R WCI -10
$$
  *****  WEATHER ACROSS CENTRAL AND WEST MINNESOTA  *****

CITY           SKY/WX    TMP DP  RH WIND       PRES   REMARKS
BEMIDJI        PTSUNNY    6  -2  70 W18G28    29.79R HAZE    WCI -14
PARK RAPIDS    MIX PCPN   7  -2  66 NW21G33   29.80R WCI -13
WADENA         FAIR       9  -2  61 W16G28    29.83R WCI  -9
DETROIT LAKES  FAIR       9   3  78 NW25G32   29.87R HAZE    WCI -13
MOORHEAD       FAIR      10   0  61 NW25G33   29.94R WCI -10
FERGUS FALLS   FAIR       9   0  66 NW23G33   29.94R HAZE    WCI -12
ELBOW LAKE     LGT SNOW   8   4  81 NW22      29.90R WCI -12
MORRIS MN      FAIR      10   3  72 NW23G33   29.92R HAZE    WCI -10
STAPLES        FAIR       9   1  72 W18G29    29.82R WCI -10
WHEATON        FAIR       9   1  72 NW22G32   29.97R WCI -11
$$
  *****  WEATHER ELSEWHERE ACROSS MINNESOTA  *****

CITY           SKY/WX    TMP DP  RH WIND       PRES   REMARKS
DULUTH         FAIR      19   3  49 NW24G32   29.61R WCI   2
INTRNTL FALLS  FAIR       9  -7  48 W22G32    29.69R WCI -11
ELY            FAIR      12   0  57 W14G30    29.60R WCI  -3
CLOQUET        FAIR      18   1  49 NW15      29.66R WCI   3
BRAINERD       FAIR      15   1  53 NW15G28   29.76R WCI   0
HIBBING        FAIR      14  -1  51 NW20G28   29.65R WCI  -3
ALEXANDRIA     FAIR       9   0  67 W24G32    29.84R WCI -12
SAINT CLOUD    FAIR      16   4  59 NW21G31   29.79R WCI  -1
MINNEAPOLIS    FAIR      23  10  57 W22       29.78R WCI   8
$$

  *****  WEATHER ACROSS SOUTH DAKOTA  *****

CITY           SKY/WX    TMP DP  RH WIND       PRES   REMARKS
SIOUX FALLS    PTSUNNY   15   6  67 N20G30    29.99R BLWGSNOWWCI  -2
BROOKINGS      NOT AVBL
WATERTOWN      PTSUNNY   11   2  67 NW24G31   29.93R WCI  -9
HURON          SUNNY     16   4  59 NW17      30.03R WCI   0
SISSETON       NOT AVBL
ABERDEEN       MOSUNNY   15   1  53 NW20G31   30.00S WCI  -2
MITCHELL         N/A     18   5  57 NW24G30   30.04R WCI   0
PIERRE         SUNNY     21   3  45 NW20G26   30.00S WCI   6
MOBRIDGE       MOSUNNY   19  -2  39 NW23G32   29.96S WCI   2
RAPID CITY     PTSUNNY   15   3  59 N25G32    29.94S WCI  -4
$$

  *****  SOME WEATHER IN NEARBY STATES *****

CITY           SKY/WX    TMP DP  RH WIND       PRES   REMARKS
GLASGOW MT     MOSUNNY   17 -10  29 NW23G35   30.00F WCI  -1
GREAT FALLS MT SUNNY     18   3  52 SW6       30.02F WCI  10
CHEYENNE WY    LGT SNOW  12   4  70 NE7       29.78R WCI   1
SCOTTSBLUFF NE CLOUDY    20   7  57 NW10      29.93R WCI   9
OMAHA NE       PTSUNNY   30  15  53 N21G31    29.93R WCI  17
DES MOINES IA  CLOUDY    31  21  66 N18G30    29.87R WCI  19
DAVENPORT IA   FAIR      33  25  72 NW20      29.77R WCI  21
CHICAGO IL     CLOUDY    34  29  82 W14       29.69R WCI  25
EAU CLAIRE WI  CLOUDY    28  18  66 W13       29.67R WCI  17
LA CROSSE WI   CLOUDY    32  22  66 W16       29.71R WCI  21
$$

  *****  SOME NATIONAL WEATHER *****

CITY           SKY/WX    TMP DP  RH WIND       PRES   REMARKS
LA GUARDIA NY  LGTSLEET  30  27  86 S10       30.14F FOG     WCI  21
RALEIGH NC     DRIZZLE   36  33  89 CALM      30.18F FOG
ATLANTA GA     FOG       52  51  97 E9        30.11F VSB<1/4
NEW ORLEANS LA PTSUNNY   75  64  68 S14G24    30.00S
OKLAHOMA CITY  CLOUDY    55  42  61 NW5       29.82S
ALBUQUERQUE NM MOSUNNY   54  29  38 VRB6      29.76F
SALT LAKE CITY PTSUNNY   37  25  61 N10       29.91R
LOS ANGELES CA MOSUNNY   60  47  61 W17       29.91S
BOISE ID       SUNNY     44  15  31 N20G28    30.01R
SEATTLE WA     MOSUNNY   50  15  24 W8        30.22F
$$

*** WEATHER ACROSS MANITOBA...SASKATCHEWAN AND ONTARIO ***
                ***ONTARIO***

CITY           SKY/WX    TMP DP  RH WIND       PRES   REMARKS
GERALDTON      LGT SNOW  23  19  86 W9        29.28S VSB 3/4 WCI  13
THUNDER BAY    FLURRIES  21  10  63 W22G29    29.47R WCI   5
SIOUX LOOKOUT  PTCLDY     3 -11  51 NW17G28   29.57R WCI -17
TORONTO        FRZ RAIN  27  25  93 SE9       29.58F FOG     WCI  17
BIG TROUT LK   LGT SNOW   3   0  85 NW17G23   29.40R WCI -17
PICKLE LAKE    FLURRIES   5  -6  61 W18G33    29.42R WCI -15
DRYDEN         CLOUDY     5  -8  56 NW15G24   29.60R WCI -13
KENORA         MOCLDY     1  -9  60 NW10G20   29.69R WCI -14
$$
                *** MANITOBA***

CITY           SKY/WX    TMP DP  RH WIND       PRES   REMARKS
BRANDON        PTSUNNY    0  -8  71 NW18G25   29.90R BLWGSNOWWCI -22
DAUPHIN        SUNNY      0  -9  65 W24G31    29.87S WCI -24
ISLAND LAKE    LGT SNOW  -4 -11  71 W17       29.66R BLWGSNOWWCI -26
PILOT MOUND      N/A     -2  -6  84 NW18G25     N/A  WCI -24
THE PAS        CLOUDY    -8 -17  65 NW18G26   29.94R BLWGSNOWWCI -31
THOMPSON       FLURRIES  -2 -11  65 N14G26    29.84R WCI -21
WINNIPEG       MOSUNNY    1 -11  55 NW17      29.87R WCI -19
LYNN LAKE      CLEAR     -4 -15  59 N17G24    29.96R WCI -26
CHURCHILL      PTCLDY    -6 -11  77 N12       30.01R WCI -24
GILLAM         LGT SNOW  -8 -15  71 N18G29    29.81R BLWGSNOWWCI -31
$$
                ***SASKATCHEWAN***

CITY           SKY/WX    TMP DP  RH WIND       PRES   REMARKS
ESTEVAN        PTSUNNY    1  -8  66 W24G33    29.96F WCI -22
KINDERSLEY     MOSUNNY    5  -6  61 NW23G31   30.02S WCI -17
LLOYDMINSTER   PTSUNNY    1  -8  66 NW14      30.06R WCI -17
PRINCE ALBERT  MOSUNNY   -2 -17  50 N20G26    30.03R WCI -25
REGINA         SNOWSHWR   1  -6  71 NW21G32   29.95S BLWGSNOWWCI -20


USA.gov is the U.S. government's official web portal to all federal, state and local government web resources and services.